Date,TemperatureHighF,TemperatureAvgF,TemperatureLowF,DewpointHighF,DewpointAvgF,DewpointLowF,HumidityHigh,HumidityAvg,HumidityLow,PressureMaxIn,PressureMinIn,WindSpeedMaxMPH,WindSpeedAvgMPH,GustSpeedMaxMPH,PrecipitationSumIn
2012-1-1,43,23,11,5,2,-1,65,43,16,30.94,30.64,4,1,9,0.00
2012-1-2,47,26,13,14,8,3,67,50,24,30.97,30.55,4,1,7,0.00
2012-1-3,50,28,15,17,13,8,77,55,25,30.70,30.34,6,1,14,0.00
2012-1-4,45,27,14,14,11,8,76,54,23,30.87,30.56,4,1,10,0.00
2012-1-5,51,29,15,15,11,8,73,50,19,30.67,30.15,8,2,17,0.00
2012-1-6,51,30,18,17,14,11,73,53,25,30.31,30.00,3,1,9,0.00
2012-1-7,34,29,24,31,23,14,90,77,62,30.15,29.90,6,1,12,0.07
2012-1-8,33,22,12,22,15,7,84,74,58,30.54,30.15,6,1,13,0.01
2012-1-9,36,21,10,19,11,4,80,67,43,30.75,30.41,5,1,7,0.01
2012-1-10,44,25,11,23,15,7,82,68,40,30.54,30.08,7,1,16,0.01
2012-1-11,33,25,9,20,9,-3,83,55,27,30.52,29.96,9,2,23,0.00
2012-1-12,33,14,1,3,-3,-7,70,49,25,30.75,30.34,5,1,11,0.00
2012-1-13,37,17,4,3,0,-4,70,49,22,30.71,30.41,4,1,15,0.00
2012-1-14,44,23,8,11,5,0,68,48,23,30.74,30.28,8,2,16,0.00
2012-1-15,41,26,10,16,10,4,74,53,27,30.33,29.84,5,1,13,0.00
2012-1-16,38,31,14,31,22,-2,90,72,40,30.21,29.54,12,2,27,0.19
2012-1-17,25,12,-3,2,-3,-10,72,53,30,30.60,30.21,9,2,17,0.00
2012-1-18,39,26,8,18,9,1,78,53,32,30.46,30.03,10,2,20,0.01
2012-1-19,50,40,31,27,22,16,66,48,34,30.03,29.69,10,2,21,0.00
2012-1-20,52,41,29,28,23,19,69,51,30,29.99,29.65,5,0,20,0.00
2012-1-21,37,32,26,33,26,18,91,78,54,29.96,29.39,5,1,9,0.21
2012-1-22,37,32,22,31,21,14,92,64,42,30.19,29.40,14,2,31,0.04
2012-1-23,40,28,18,24,17,11,77,64,36,30.21,29.86,5,1,11,0.00
2012-1-24,41,32,27,26,22,16,86,67,48,30.36,29.83,5,1,19,0.02
2012-1-25,40,26,16,17,14,10,78,61,35,30.62,30.33,4,1,9,0.00
2012-1-26,43,28,16,30,20,11,91,72,40,30.50,29.96,7,2,15,0.00
2012-1-27,38,29,12,30,15,0,91,59,23,30.57,29.91,6,1,17,0.18
2012-1-28,37,18,4,9,4,-3,74,56,28,30.86,30.56,5,2,14,0.01
2012-1-29,42,23,9,15,9,2,75,57,28,30.78,30.36,4,1,9,0.00
2012-1-30,44,28,14,18,13,9,79,58,28,30.36,30.02,10,2,18,0.00
2012-1-31,45,30,16,17,14,10,78,55,25,30.30,30.04,5,1,16,0.00
2012-2-1,46,29,15,17,12,4,76,52,19,30.48,30.06,5,1,11,0.00
2012-2-2,46,35,23,19,15,12,68,46,28,30.07,29.74,9,2,26,0.00
2012-2-3,41,33,25,17,14,8,64,46,27,30.29,29.87,6,1,18,0.00
2012-2-4,43,26,13,13,8,5,72,50,22,30.55,30.25,4,1,9,0.00
2012-2-5,42,25,11,12,8,4,72,53,27,30.56,30.18,5,1,7,0.00
2012-2-6,40,26,16,26,16,8,84,66,37,30.29,30.08,5,1,13,0.00
2012-2-7,42,28,19,17,13,10,81,58,31,30.42,30.18,2,0,9,0.00
2012-2-8,38,27,15,28,16,8,90,65,31,30.47,30.28,4,1,10,0.00
2012-2-9,41,32,22,28,25,17,89,78,49,30.35,30.15,6,1,21,0.06
2012-2-10,38,29,20,29,21,15,87,73,48,30.40,30.17,6,1,13,0.02
2012-2-11,51,36,24,28,23,20,85,64,31,30.23,29.88,3,1,9,0.01
2012-2-12,42,34,29,35,27,21,88,76,64,29.91,29.59,9,1,17,0.03
2012-2-13,38,32,29,32,28,25,91,83,62,29.82,29.64,3,0,16,0.28
2012-2-14,43,31,25,31,26,22,89,81,51,29.84,29.66,6,0,14,0.09
2012-2-18,45,28,16,15,11,9,74,53,24,30.27,29.95,7,1,17,0.00
2012-2-19,37,28,23,27,18,11,85,64,41,29.97,29.60,10,2,24,0.00
2012-2-20,33,26,21,20,10,5,81,51,32,30.20,29.80,5,1,18,0.03
2012-2-21,40,31,23,22,19,17,84,64,43,30.26,30.06,4,0,14,0.03
2012-2-22,47,41,33,28,26,21,67,55,46,30.08,29.53,8,1,21,0.00
2012-2-23,45,32,17,32,11,0,78,43,25,30.28,29.41,15,3,30,0.04
2012-2-24,41,24,11,10,6,1,67,47,23,30.57,30.28,5,1,9,0.00
2012-2-25,54,33,14,14,8,3,73,42,15,30.31,29.68,10,2,25,0.00
2012-2-26,37,28,18,4,-1,-6,46,29,17,30.27,29.85,6,1,17,0.00
2012-2-27,54,32,14,29,10,-2,62,42,23,30.25,29.61,6,1,16,0.00
2012-2-28,41,32,29,32,28,17,91,84,60,30.01,29.45,8,1,17,0.39
2012-2-29,38,28,19,24,20,14,83,70,50,30.18,29.79,7,0,15,0.23
2012-3-1,32,28,19,26,22,13,87,77,58,29.91,29.72,4,0,10,0.08
2012-3-2,30,20,11,16,9,0,82,63,30,30.43,29.90,10,1,22,0.12
2012-3-3,32,20,6,17,8,-2,76,59,41,30.67,30.43,3,0,6,0.00
2012-3-4,47,32,19,25,18,12,76,60,36,30.58,30.25,6,1,14,0.00
2012-3-5,52,34,17,22,18,12,82,57,25,30.42,29.95,10,2,20,0.00
2012-3-6,61,43,24,21,16,8,76,40,13,29.95,29.22,8,2,20,0.00
2012-3-7,51,42,30,26,19,11,75,42,22,30.02,29.22,9,1,26,0.00
2012-3-8,54,39,28,23,17,8,78,47,16,30.45,30.02,6,1,17,0.00
2012-3-9,58,38,22,18,15,8,75,45,14,30.57,30.11,5,1,10,0.00
2012-3-10,62,40,23,22,17,9,73,44,17,30.23,29.72,6,1,14,0.00
2012-3-11,58,40,25,22,19,16,75,46,20,29.86,29.64,5,1,17,0.00
2012-3-12,61,42,25,23,19,15,78,45,19,30.03,29.76,6,0,21,0.00
2012-3-13,64,45,27,20,15,9,69,37,12,30.03,29.73,8,1,27,0.00
2012-3-14,65,45,26,17,14,7,64,34,10,30.06,29.78,5,1,15,0.00
2012-3-15,67,45,28,24,19,13,65,39,17,30.22,29.87,5,1,12,0.00
2012-3-16,69,48,29,25,21,14,73,41,14,30.00,29.63,5,1,16,0.00
2012-3-17,68,48,31,23,19,15,64,36,14,29.73,29.42,9,1,20,0.00
2012-3-18,56,42,28,34,24,19,87,54,26,29.52,29.16,7,1,16,0.12
2012-3-19,40,30,22,22,18,10,82,63,32,29.82,29.46,11,1,18,0.03
2012-3-20,47,32,19,22,14,9,77,51,24,30.16,29.81,5,1,15,0.00
2012-3-21,57,42,30,26,20,14,62,43,25,30.17,29.86,4,0,10,0.00
2012-3-22,66,45,26,26,22,18,78,46,17,30.13,29.73,5,1,14,0.00
2012-3-23,71,49,28,25,21,17,71,39,15,30.09,29.72,11,2,20,0.00
2012-3-24,72,52,30,25,21,16,67,35,12,30.10,29.76,9,2,19,0.00
2012-3-25,74,54,33,26,22,17,66,34,12,29.99,29.60,10,2,21,0.00
2012-3-26,66,50,35,26,18,11,64,33,14,29.81,29.44,15,3,38,0.00
2012-3-27,63,46,28,21,17,11,60,34,16,30.07,29.72,6,1,17,0.00
2012-3-28,69,50,30,24,19,12,67,34,15,30.01,29.63,7,1,19,0.00
2012-3-29,66,54,40,30,22,13,52,30,17,29.81,29.61,8,1,19,0.00
2012-3-30,69,52,34,27,24,19,62,35,20,29.94,29.67,6,1,17,0.00
2012-3-31,77,55,34,30,23,16,70,36,12,29.92,29.47,7,2,24,0.00
2012-4-1,73,57,42,28,21,15,48,27,11,29.52,29.16,12,2,25,0.00
2012-4-2,56,45,35,29,26,24,71,49,30,29.81,29.33,9,2,24,0.00
2012-4-3,59,48,39,27,24,21,55,40,24,29.85,29.69,6,1,13,0.00
2012-4-4,66,46,29,30,25,22,77,48,20,29.94,29.60,5,1,17,0.00
2012-4-5,69,54,32,25,18,4,67,30,8,29.79,29.40,9,2,23,0.00
2012-4-6,59,54,38,26,10,-3,29,18,12,30.05,29.38,11,5,31,0.00
2012-4-7,60,41,23,8,3,-4,47,24,9,30.44,30.00,7,1,17,0.00
2012-4-8,69,46,23,12,7,1,51,25,8,30.41,30.00,7,2,25,0.00
2012-4-9,74,51,29,20,14,8,51,26,9,30.17,29.82,5,2,20,0.00
2012-4-10,78,55,32,21,18,13,54,27,10,30.05,29.68,6,1,19,0.00
2012-4-11,73,55,38,46,28,17,61,38,18,29.81,29.44,10,1,27,0.05
2012-4-12,58,45,36,35,28,22,86,54,30,29.80,29.44,9,2,22,0.10
2012-4-13,51,42,30,33,26,20,89,59,30,29.94,29.58,5,0,15,0.01
2012-4-14,52,44,34,33,25,15,85,52,24,29.60,29.34,5,1,17,0.07
2012-4-15,48,38,32,35,30,24,90,76,42,30.05,29.53,11,2,25,0.22
2012-4-16,54,42,33,35,28,22,91,64,30,30.17,29.99,5,0,14,0.06
2012-4-17,62,45,28,29,25,22,81,50,23,30.25,29.93,7,1,17,0.00
2012-4-18,66,49,31,42,28,25,83,49,22,30.04,29.73,9,1,19,0.37
2012-4-19,57,46,40,41,38,30,91,73,36,29.98,29.79,10,1,20,0.23
2012-4-20,66,50,33,37,33,30,89,57,28,30.21,29.93,7,1,15,0.00
2012-4-21,75,55,34,37,30,27,81,45,19,30.16,29.86,4,1,14,0.00
2012-4-22,79,58,37,36,28,23,72,38,14,30.11,29.82,6,1,15,0.00
2012-4-23,82,61,38,34,28,23,66,35,13,30.08,29.69,4,1,14,0.00
2012-4-24,82,60,40,32,29,25,63,37,13,29.86,29.56,5,1,20,0.00
2012-4-25,78,60,48,38,26,20,45,30,14,29.78,29.58,7,1,17,0.00
2012-4-26,75,60,49,45,38,29,86,47,21,29.70,29.35,10,1,33,0.00
2012-4-27,60,51,43,46,30,12,89,52,21,29.86,29.44,9,2,18,0.32
2012-4-28,59,46,31,20,16,10,61,32,15,29.99,29.70,8,1,23,0.00
2012-4-29,64,46,28,20,18,14,65,36,15,29.99,29.79,9,1,26,0.00
2012-4-30,71,51,30,23,19,15,62,32,13,30.04,29.59,5,1,20,0.00
2012-5-1,68,54,39,38,29,21,58,41,27,29.66,29.50,6,0,17,0.00
2012-5-2,68,56,45,46,36,29,70,49,25,29.65,29.52,9,0,20,0.01
2012-5-3,78,59,37,39,30,22,82,41,13,29.86,29.55,6,1,20,0.00
2012-5-4,80,61,38,31,25,18,63,29,11,29.78,29.55,5,1,19,0.00
2012-5-5,76,59,38,29,24,18,58,29,13,29.76,29.59,8,1,18,0.00
2012-5-6,68,53,35,27,23,19,61,33,18,29.96,29.70,13,2,26,0.00
2012-5-7,63,50,42,41,33,22,79,55,30,29.98,29.70,4,1,32,0.07
2012-5-8,70,52,34,38,30,20,89,50,18,30.16,29.81,5,1,12,0.00
2012-5-9,76,56,34,29,23,15,71,34,10,30.07,29.67,4,1,13,0.00
2012-5-10,80,59,36,27,24,20,63,31,11,29.83,29.48,6,1,17,0.00
2012-5-11,70,56,42,40,33,24,63,43,24,29.87,29.52,14,1,23,0.00
2012-5-12,74,56,38,40,29,11,83,44,9,30.07,29.77,8,1,20,0.00
2012-5-13,68,54,38,32,26,16,60,36,19,30.05,29.87,8,1,22,0.00
2012-5-14,78,56,33,30,24,6,73,35,7,30.23,29.84,3,0,9,0.00
2012-5-15,82,61,37,32,24,20,58,29,11,30.11,29.68,6,1,15,0.00
2012-5-16,76,61,47,38,32,26,53,35,17,29.85,29.64,9,1,18,0.00
2012-5-17,78,61,42,39,33,27,74,39,16,29.85,29.42,5,0,21,0.00
2012-5-18,78,62,49,41,31,22,68,34,15,29.57,29.26,11,1,23,0.00
2012-5-19,68,55,44,42,36,30,85,54,27,29.91,29.53,10,1,19,0.01
2012-5-20,77,58,38,37,31,27,81,43,16,30.08,29.83,4,1,18,0.00
2012-5-21,84,63,40,35,30,26,70,35,13,30.08,29.67,4,0,15,0.00
2012-5-22,86,65,43,36,28,19,66,31,10,29.77,29.23,6,1,28,0.00
2012-5-23,66,58,45,41,34,27,84,44,25,29.54,29.17,12,2,27,0.09
2012-5-24,67,52,38,40,26,16,85,44,15,29.70,29.44,6,1,19,0.00
2012-5-25,82,64,41,35,28,18,56,28,14,29.53,29.20,13,2,30,0.00
2012-5-26,84,65,48,33,25,4,49,25,12,29.49,29.09,13,2,33,0.00
2012-5-27,61,50,35,23,16,4,46,27,15,29.86,29.47,5,1,19,0.00
2012-5-28,70,52,34,27,22,17,61,34,15,30.03,29.80,6,1,16,0.00
2012-5-29,79,58,35,28,22,17,62,30,11,30.07,29.66,7,1,21,0.00
2012-5-30,81,61,39,33,25,18,57,28,12,29.89,29.65,8,1,17,0.00
2012-5-31,81,63,42,39,32,25,60,33,18,29.93,29.62,6,1,18,0.00
2012-6-1,84,66,46,41,36,32,65,35,18,29.82,29.55,4,0,20,0.00
2012-6-2,83,63,47,48,39,33,67,44,20,29.73,29.49,6,0,19,0.03
2012-6-3,87,68,47,44,38,30,75,39,14,29.79,29.56,3,0,14,0.00
2012-6-4,89,68,49,42,37,29,62,35,13,29.80,29.49,6,1,17,0.01
2012-6-5,86,70,50,44,34,22,65,31,10,29.62,29.32,11,1,23,0.00
2012-6-6,83,68,53,37,28,22,38,24,14,29.66,29.37,6,1,16,0.00
2012-6-7,83,66,44,34,28,23,54,27,13,29.72,29.52,10,1,21,0.00
2012-6-8,88,68,43,36,28,23,60,26,10,29.78,29.34,6,1,20,0.00
2012-6-9,86,70,49,36,28,23,54,23,11,29.46,29.17,7,1,19,0.00
2012-6-10,72,60,45,27,18,4,41,22,8,29.89,29.19,14,1,34,0.00
2012-6-11,78,58,35,27,19,11,52,24,10,30.11,29.81,4,1,18,0.00
2012-6-12,84,63,38,29,21,14,56,24,8,30.05,29.65,9,1,21,0.00
2012-6-13,88,66,41,34,24,18,53,24,10,29.82,29.42,5,1,21,0.00
2012-6-14,89,69,44,38,26,20,50,23,9,29.70,29.41,5,0,22,0.00
2012-6-15,90,71,49,38,28,20,50,23,9,29.66,29.42,4,1,13,0.00
2012-6-16,84,69,51,39,34,28,54,28,14,29.79,29.52,6,1,17,0.00
2012-6-17,90,70,47,39,33,28,63,30,12,29.83,29.40,5,1,19,0.00
2012-6-18,90,72,50,36,29,25,48,23,10,29.57,29.29,6,0,17,0.00
2012-6-19,90,72,48,34,27,23,48,21,10,29.53,29.26,6,1,19,0.00
2012-6-20,82,66,47,32,25,19,49,24,11,29.80,29.28,6,1,21,0.00
2012-6-21,92,68,42,34,26,21,53,24,9,29.96,29.57,5,0,14,0.00
2012-6-22,93,73,49,38,28,23,48,23,9,29.72,29.33,8,1,23,0.00
2012-6-23,94,75,51,38,31,27,50,23,10,29.57,29.36,7,1,22,0.00
2012-6-24,96,75,54,50,36,28,49,27,13,29.78,29.50,9,0,21,0.02
2012-6-25,97,77,56,44,39,30,59,30,10,29.76,29.44,6,0,17,0.00
2012-6-26,92,76,57,46,39,34,52,29,16,29.61,29.39,5,0,23,0.00
2012-6-27,88,77,66,53,46,36,59,35,20,29.63,29.41,9,0,18,0.00
2012-6-28,87,73,60,52,46,36,61,40,24,29.80,29.62,6,0,18,0.01
2012-6-29,91,71,54,56,45,36,81,46,17,29.89,29.58,4,0,13,0.12
2012-6-30,94,74,50,42,36,28,64,30,10,29.80,29.48,5,1,22,0.00
2012-7-1,97,75,51,42,35,29,56,27,10,29.68,29.41,8,1,24,0.00
2012-7-2,95,74,58,47,40,34,51,31,14,29.68,29.43,4,1,16,0.00
2012-7-3,94,73,54,50,44,37,72,40,15,29.74,29.42,6,0,16,0.00
2012-7-4,91,69,55,59,47,38,85,52,16,29.80,29.44,8,1,20,0.06
2012-7-5,85,68,57,57,53,48,86,63,29,29.77,29.50,9,1,21,0.00
2012-7-6,85,67,57,60,53,46,88,66,27,29.90,29.63,5,0,14,0.14
2012-7-7,80,65,59,59,56,46,89,74,31,29.98,29.74,7,0,18,0.15
2012-7-8,85,68,54,56,52,45,90,61,27,30.06,29.74,6,1,20,0.00
2012-7-9,87,71,54,54,48,41,83,48,20,29.95,29.65,6,0,16,0.02
2012-7-10,94,74,54,49,43,35,73,38,14,29.90,29.58,3,0,14,0.00
2012-7-11,90,72,54,48,44,39,67,39,19,29.84,29.60,5,0,27,0.00
2012-7-12,91,72,53,48,45,41,78,43,19,29.89,29.63,10,1,26,0.00
2012-7-13,92,73,55,47,43,37,67,38,15,29.86,29.59,8,1,25,0.00
2012-7-14,87,72,62,53,47,45,60,43,26,29.79,29.56,13,1,25,0.00
2012-7-19,93,72,55,51,47,42,77,46,18,29.91,29.61,8,1,25,0.00
2012-7-20,95,72,59,60,51,43,81,53,18,29.93,29.58,8,0,19,0.06
2012-7-21,95,71,57,56,51,41,83,55,16,29.99,29.57,8,1,22,0.01
2012-7-22,87,68,57,61,53,46,81,61,26,29.96,29.67,3,0,13,0.10
2012-7-23,90,71,57,55,51,44,83,56,22,29.95,29.58,10,0,27,0.00
2012-7-27,86,67,55,62,49,39,81,53,25,29.93,29.66,12,1,22,0.26
2012-7-28,79,67,55,57,54,51,87,64,39,30.00,29.79,5,0,12,0.00
2012-7-29,83,71,61,59,54,50,80,58,34,29.89,29.71,6,0,19,0.01
2012-7-30,86,68,56,61,55,49,88,64,29,29.90,29.68,3,0,15,0.01
2012-7-31,89,72,56,57,50,42,84,53,20,29.93,29.65,5,0,16,0.03
2012-8-1,79,68,58,56,53,47,83,61,33,29.90,29.75,9,0,17,0.00
2012-8-2,84,68,57,55,50,40,82,56,25,29.88,29.63,4,0,17,0.00
2012-8-3,89,69,50,51,44,37,83,48,17,29.83,29.52,6,0,17,0.00
2012-8-4,90,70,49,43,38,30,74,37,12,29.86,29.61,4,0,13,0.00
2012-8-5,93,71,50,46,39,32,66,35,12,29.99,29.74,3,0,13,0.00
2012-8-6,89,72,60,53,47,42,66,43,22,29.99,29.72,13,1,26,0.00
2012-8-7,90,72,54,53,45,28,84,47,13,30.05,29.72,4,0,16,0.00
2012-8-8,94,72,52,46,38,32,67,34,12,30.01,29.72,3,0,9,0.00
2012-8-9,94,74,53,46,41,35,61,35,14,29.96,29.66,3,0,13,0.00
2012-8-10,90,72,58,54,47,43,68,43,21,29.86,29.56,11,1,21,0.01
2012-8-11,86,70,54,54,48,41,87,52,22,29.84,29.65,3,0,17,0.00
2012-8-12,91,71,51,47,42,33,78,42,14,29.95,29.64,6,0,15,0.00
2012-8-13,70,59,52,58,51,38,91,76,34,30.00,29.68,2,0,5,0.64
2012-8-14,82,64,51,53,49,44,91,63,27,30.01,29.65,3,0,12,0.01
2012-8-15,88,67,49,50,45,38,84,50,18,29.85,29.59,3,0,9,0.00
2012-8-16,90,69,50,46,42,37,76,44,16,29.88,29.60,7,0,17,0.00
2012-8-17,89,68,52,48,43,38,70,43,18,29.86,29.59,8,0,19,0.00
2012-8-18,89,69,49,46,39,29,78,41,12,29.90,29.58,6,1,15,0.00
2012-8-19,90,68,46,40,34,29,62,32,13,29.91,29.57,4,0,17,0.00
2012-8-20,66,60,57,38,36,33,48,41,32,29.65,29.61,2,0,4,0.00
2012-9-2,81,66,54,53,47,40,78,54,24,29.92,29.72,4,0,16,0.00
2012-9-3,81,65,48,50,44,38,84,51,22,29.99,29.76,10,0,24,0.00
2012-9-4,86,65,47,43,36,28,74,40,13,30.01,29.70,6,0,16,0.00
2012-9-5,85,64,43,34,28,20,62,31,10,30.02,29.71,5,0,15,0.00
2012-9-6,84,63,42,40,29,22,56,31,14,30.01,29.67,4,0,15,0.00
2012-9-7,80,63,53,53,48,34,89,65,24,29.93,29.67,8,1,20,0.07
2012-10-7,60,42,26,14,9,5,51,29,12,30.19,29.93,5,0,18,0.00
2012-10-8,67,43,25,14,10,6,53,30,10,30.20,29.81,5,1,15,0.00
2012-10-9,73,49,29,24,18,12,54,32,14,30.05,29.74,4,0,15,0.00
2012-10-10,74,54,33,31,25,18,61,36,19,30.11,29.74,3,0,14,0.00
2012-10-11,76,57,37,31,28,26,66,37,18,29.98,29.66,4,0,13,0.00
2012-10-12,59,49,41,47,37,27,89,66,36,29.89,29.71,10,0,26,0.12
2012-10-13,47,44,41,42,38,36,90,82,73,30.17,29.86,4,0,14,0.01
2012-10-14,63,49,41,42,38,32,91,69,33,30.30,30.06,3,0,11,0.00
2012-10-15,68,48,32,36,32,29,89,60,25,30.24,29.86,5,1,15,0.00
2012-10-16,69,51,34,43,32,28,81,53,26,30.01,29.47,9,1,19,0.07
2012-10-17,57,46,36,43,18,7,85,38,15,30.04,29.56,8,1,22,0.00
2012-10-18,62,42,27,21,17,12,63,39,16,30.30,30.01,4,0,14,0.00
2012-10-19,68,45,27,26,21,18,71,43,18,30.25,29.84,4,1,16,0.00
2012-10-20,72,49,30,26,23,21,67,40,17,29.99,29.56,8,2,16,0.00
2012-10-21,71,50,32,28,24,20,64,40,19,29.86,29.56,5,1,17,0.00
2012-10-22,69,54,35,34,28,26,70,41,21,29.83,29.48,6,1,17,0.00
2012-10-23,68,59,50,31,26,19,46,29,17,29.58,29.43,8,1,18,0.00
2012-10-24,62,50,34,35,27,15,86,47,17,29.85,29.37,13,2,27,0.20
2012-10-25,41,34,27,28,23,19,87,66,44,30.26,29.84,7,1,20,0.00
2012-10-26,44,30,17,21,16,12,81,60,31,30.58,30.24,3,0,12,0.04
2012-10-27,51,36,28,20,18,14,73,50,25,30.33,30.06,3,0,11,0.00
2012-10-28,59,43,30,27,24,19,69,48,27,30.27,29.97,3,0,13,0.00
2012-10-29,64,44,28,30,26,23,80,53,24,30.30,30.01,4,1,13,0.00
2012-10-30,46,33,29,27,24,22,77,69,48,30.32,30.10,4,2,7,0.00
2012-11-2,62,43,31,21,19,16,64,42,18,30.09,29.85,4,1,13,0.00
2012-11-3,64,41,25,23,18,16,66,43,19,30.29,30.00,4,1,12,0.00
2012-11-4,62,40,26,26,20,16,67,49,23,30.41,30.13,4,1,14,0.00
2012-11-5,64,43,27,30,25,20,73,52,28,30.46,30.11,4,1,9,0.00
2012-11-6,67,44,28,29,24,21,78,51,21,30.41,30.06,4,1,7,0.00
2012-11-7,66,43,26,24,20,17,69,44,18,30.30,29.87,8,2,16,0.00
2012-11-8,69,45,26,24,18,12,68,39,13,30.05,29.56,5,1,15,0.00
2012-11-9,61,53,43,39,31,17,81,45,28,29.68,29.28,10,2,30,0.02
2012-11-10,51,33,25,37,26,20,88,76,42,29.84,29.23,7,1,18,0.28
2012-11-11,26,22,16,20,15,9,82,74,60,30.55,29.85,5,0,13,0.01
2012-11-12,31,19,8,17,10,2,80,69,47,30.85,30.54,4,1,7,0.09
2012-11-13,42,27,21,24,18,14,83,70,34,30.59,30.34,4,1,7,0.06
2012-11-14,44,30,19,27,20,14,83,70,42,30.57,30.23,4,1,7,0.00
2012-11-15,52,33,22,27,22,18,84,67,30,30.47,30.21,4,1,7,0.00
2012-11-16,44,33,22,34,23,17,83,67,41,30.43,30.10,12,1,23,0.02
2012-11-17,57,42,36,35,32,29,89,69,37,30.19,29.89,6,0,14,0.02
2012-11-18,51,41,35,38,34,28,91,77,55,30.11,29.93,5,0,11,0.21
2012-11-19,54,39,30,34,29,26,89,70,40,30.33,30.09,4,1,10,0.00
2012-11-20,55,37,26,27,24,21,85,64,27,30.44,30.10,5,1,10,0.00
2012-11-21,59,38,24,24,21,18,82,56,21,30.30,29.92,6,2,15,0.00
2012-11-22,58,37,23,25,21,17,79,57,25,30.42,30.01,2,0,6,0.00
2012-11-23,55,35,23,23,20,18,81,59,25,30.61,30.30,4,1,7,0.00
2012-11-24,55,35,22,20,18,15,79,53,23,30.48,30.08,11,2,20,0.00
2012-11-25,54,35,20,21,17,14,77,53,23,30.20,29.84,7,2,17,0.00
2012-11-26,52,34,22,19,17,15,75,52,25,30.37,29.96,6,1,14,0.00
2012-11-27,53,32,17,15,13,9,75,49,21,30.55,30.22,9,2,16,0.00
2012-11-28,50,31,19,17,14,10,71,52,22,30.53,30.16,5,1,9,0.00
2012-11-29,55,36,24,22,19,16,71,54,27,30.30,30.02,8,1,17,0.00
2012-11-30,56,40,26,28,24,20,76,54,32,30.22,29.83,6,1,13,0.00
2012-12-1,58,46,32,30,27,23,71,49,30,30.03,29.81,6,0,15,0.00
2012-12-2,58,40,24,27,22,19,80,54,27,30.16,29.72,6,1,13,0.00
2012-12-3,50,40,28,35,27,19,86,62,30,30.29,29.69,14,1,24,0.16
2012-12-4,46,31,21,20,18,15,81,61,32,30.58,30.29,4,1,11,0.00
2012-12-5,52,36,24,33,23,16,74,62,28,30.41,29.96,11,2,18,0.00
2012-12-6,50,40,32,35,31,26,83,71,49,29.97,29.79,4,1,10,0.00
2012-12-7,45,36,29,32,26,19,86,68,45,29.99,29.82,8,1,15,0.04
2012-12-8,42,34,23,26,20,16,86,58,34,29.95,29.64,9,2,26,0.00
2012-12-9,24,17,4,17,6,-4,81,64,37,30.54,29.93,5,1,15,0.00
2012-12-10,21,14,4,14,7,-4,84,74,62,30.55,30.27,3,1,10,0.00
2012-12-11,31,20,15,20,14,9,84,78,60,30.34,30.14,4,0,7,0.12
2012-12-12,39,22,8,26,15,3,82,73,50,30.27,29.99,4,1,9,0.05
2012-12-13,50,32,24,26,21,16,82,65,33,30.14,29.82,4,1,6,0.06
2012-12-14,40,29,21,30,21,15,90,73,43,29.92,29.52,4,1,12,0.00
2012-12-15,35,32,28,30,28,24,91,86,65,29.81,29.72,4,0,15,0.15
2012-12-16,32,27,22,26,22,18,89,84,66,30.07,29.77,7,1,16,0.04
2012-12-17,34,29,22,25,23,19,88,76,60,30.04,29.75,7,1,15,0.02
2012-12-18,37,33,32,30,27,23,89,77,63,29.76,29.44,5,1,13,0.09
2012-12-19,32,18,1,29,7,-8,89,64,29,30.72,29.44,12,3,32,0.00
2012-12-20,20,4,-7,2,-6,-14,74,63,34,31.09,30.72,4,2,9,0.00
2012-12-21,26,10,-3,9,0,-9,79,67,47,30.93,30.51,4,1,7,0.00
2012-12-22,27,12,0,11,4,-5,80,69,47,30.70,30.33,5,1,10,0.00
2012-12-23,39,21,11,20,12,5,79,69,44,30.39,30.09,9,1,17,0.01
2012-12-24,30,27,23,28,23,17,89,84,76,30.09,29.70,8,1,13,0.01
2012-12-25,31,21,8,21,11,2,78,64,43,30.33,29.81,4,1,14,0.01
2012-12-26,30,19,7,22,11,1,86,71,50,30.26,29.74,7,2,14,0.00
2012-12-27,29,25,20,22,19,12,88,76,62,30.01,29.71,11,1,19,0.00
2012-12-28,25,14,4,12,6,-2,79,70,53,30.58,30.00,4,1,11,0.00
2012-12-29,19,7,-4,5,-2,-11,79,64,47,30.77,30.42,5,1,9,0.00
2012-12-30,25,12,2,12,3,-4,77,67,47,30.46,30.05,3,1,6,0.00
2012-12-31,26,20,11,16,13,4,85,72,59,30.26,29.94,6,1,14,0.00
2013-1-1,27,13,7,8,4,0,78,67,42,30.61,30.26,5,1,12,0.00